Overview Statistics Trail Chart Weather Telemetry Raw packets
 

This is the latest recevied weather packets stored in our database for station/object WS4FSC-7. If no packets are shown the sender has not sent any weather packets the latest 10 day(s).

<< 39 40 41 42 43 44 45 >>
Time Temp. Humidity Pressure Rain* Wind** Luminosity Snow
1788222950 28.33° C 80% 1014 hPa - - 0 W/m² -
1788221872 28.89° C 78% 1014 hPa - - 0 W/m² -
1788221691 28.89° C 79% 1014 hPa - - 0 W/m² -
1788221511 28.89° C 79% 1014 hPa - - 0 W/m² -
1788220791 29.44° C 81% 1014 hPa - - 0 W/m² -
1788220611 29.44° C 81% 1014 hPa - - 0 W/m² -
1788220431 29.44° C 81% 1014 hPa - - 0 W/m² -
1788220250 29.44° C 81% 1014 hPa - - 0 W/m² -
1788220070 29.44° C 80% 1014 hPa - - 1 W/m² -
1788219891 29.44° C 80% 1014 hPa - - 1 W/m² -
1788219530 29.44° C 79% 1014 hPa - - 2 W/m² -
1788218792 29.44° C 79% 1014 hPa - - 11 W/m² -
1788218631 29.44° C 79% 1014 hPa - - 11 W/m² -
1788218272 29.44° C 81% 1014 hPa - - 15 W/m² -
1788218091 29.44° C 81% 1014 hPa - - 16 W/m² -
1788217011 29.44° C 80% 1014 hPa - - 25 W/m² -
1788216830 29.44° C 80% 1014 hPa - - 26 W/m² -
1788216651 29.44° C 80% 1014 hPa - - 28 W/m² -
1788215930 29.44° C 78% 1014 hPa - - 32 W/m² -
1788215753 29.44° C 78% 1014 hPa - - 33 W/m² -
1788215211 29.44° C 79% 1014 hPa - - 36 W/m² -
1788214292 29.44° C 78% 1014 hPa - - 47 W/m² -
1788214131 29.44° C 78% 1014 hPa - - 47 W/m² -
1788213050 29.44° C 75% 1014 hPa - - 49 W/m² -
1788212870 30° C 74% 1014 hPa - - 48 W/m² -

* Rain since midnight (hover to see other rain measurements)
** Current wind speed in m/s (hover to see current wind gust speed)